TimeEST,TemperatureF,Dew PointF,Humidity,Sea Level PressureIn,VisibilityMPH,Wind Direction,Wind SpeedMPH,Gust SpeedMPH,PrecipitationIn,Events,Conditions,WindDirDegrees,DateUTC
12:53 AM,39.9,37.9,93,29.44,5.0,SSW,10.4,-,0.00,Rain,Light Rain,210,2013-02-27 05:53:00
1:53 AM,39.9,37.9,93,29.45,5.0,WSW,6.9,-,0.02,Rain,Light Rain,240,2013-02-27 06:53:00
2:33 AM,39.2,37.4,93,29.45,4.0,WSW,10.4,-,0.04,Rain,Rain,240,2013-02-27 07:33:00
3:14 AM,37.4,37.4,100,29.45,4.0,WSW,11.5,-,0.01,Rain,Light Rain,250,2013-02-27 08:14:00
3:23 AM,37.4,35.6,93,29.45,6.0,West,15.0,-,0.02,Rain,Light Rain,260,2013-02-27 08:23:00
3:53 AM,37.9,36.0,93,29.46,9.0,WSW,16.1,-,0.02,Rain,Light Rain,250,2013-02-27 08:53:00
4:53 AM,37.9,36.0,93,29.47,10.0,WSW,10.4,-,0.00,,Overcast,240,2013-02-27 09:53:00
5:08 AM,37.4,35.6,93,29.47,10.0,WSW,10.4,-,N/A,,Overcast,240,2013-02-27 10:08:00
5:48 AM,37.4,35.6,93,29.48,3.0,WSW,5.8,-,N/A,,Overcast,240,2013-02-27 10:48:00
5:53 AM,37.0,36.0,96,29.49,3.0,WSW,5.8,-,N/A,,Overcast,240,2013-02-27 10:53:00
6:12 AM,37.4,35.6,93,29.48,3.0,SW,5.8,-,N/A,,Overcast,230,2013-02-27 11:12:00
6:24 AM,37.4,35.6,93,29.49,2.5,SW,4.6,-,N/A,,Overcast,230,2013-02-27 11:24:00
6:30 AM,37.4,35.6,93,29.49,3.0,SW,4.6,-,N/A,,Overcast,230,2013-02-27 11:30:00
6:53 AM,37.0,36.0,96,29.50,4.0,SSW,5.8,-,N/A,,Overcast,210,2013-02-27 11:53:00
7:12 AM,37.4,35.6,93,29.50,5.0,SSW,9.2,-,N/A,,Overcast,210,2013-02-27 12:12:00
7:53 AM,39.0,36.0,89,29.53,7.0,SSW,16.1,-,N/A,,Overcast,210,2013-02-27 12:53:00
8:53 AM,39.0,36.0,89,29.55,7.0,SSW,13.8,-,0.01,Rain,Light Rain,210,2013-02-27 13:53:00
10:04 AM,35.6,33.8,93,29.56,7.0,WSW,17.3,20.7,0.00,Rain,Light Rain,240,2013-02-27 15:04:00
10:26 AM,35.6,32.0,87,29.57,6.0,WSW,13.8,23.0,0.01,Snow,Light Snow,240,2013-02-27 15:26:00
10:53 AM,34.0,33.1,96,29.58,3.0,WSW,9.2,-,0.02,Snow,Light Snow,240,2013-02-27 15:53:00
11:53 AM,35.1,33.1,92,29.58,6.0,SSW,11.5,-,0.01,,Overcast,210,2013-02-27 16:53:00
12:33 PM,35.6,33.8,93,29.57,5.0,SW,17.3,-,0.00,Rain,Light Rain,220,2013-02-27 17:33:00
12:49 PM,37.4,33.8,87,29.57,5.0,SW,16.1,26.5,0.00,Rain,Light Rain,230,2013-02-27 17:49:00
12:53 PM,37.0,34.0,89,29.57,5.0,SW,16.1,26.5,0.00,Rain,Light Rain,220,2013-02-27 17:53:00
1:06 PM,35.6,33.8,93,29.57,4.0,SW,12.7,-,0.01,Rain,Light Rain,220,2013-02-27 18:06:00
1:53 PM,36.0,33.1,89,29.58,9.0,SW,13.8,-,0.01,,Overcast,220,2013-02-27 18:53:00
2:50 PM,35.6,32.0,87,29.57,4.0,SW,12.7,-,0.00,Snow,Light Snow,220,2013-02-27 19:50:00
2:53 PM,35.1,32.0,89,29.58,5.0,SW,15.0,-,0.00,Snow,Light Snow,230,2013-02-27 19:53:00
3:18 PM,35.6,32.0,87,29.58,2.5,SW,9.2,-,0.00,Snow,Light Snow,220,2013-02-27 20:18:00
3:28 PM,35.6,32.0,87,29.58,3.0,SW,11.5,-,0.01,Snow,Light Snow,230,2013-02-27 20:28:00
3:53 PM,35.1,32.0,89,29.59,5.0,SW,9.2,-,0.01,Snow,Light Snow,230,2013-02-27 20:53:00
4:48 PM,33.8,32.0,93,29.59,2.5,WSW,5.8,-,0.00,Snow,Light Snow,240,2013-02-27 21:48:00
4:53 PM,34.0,32.0,92,29.60,2.0,SW,4.6,-,0.01,Snow,Light Snow,230,2013-02-27 21:53:00
5:00 PM,33.8,32.0,93,29.59,1.2,SW,8.1,-,0.00,Snow,Light Snow,230,2013-02-27 22:00:00
5:17 PM,33.8,30.2,87,29.60,1.0,SW,11.5,-,0.02,Snow,Light Snow,230,2013-02-27 22:17:00
5:36 PM,33.8,30.2,87,29.60,1.5,SW,10.4,-,0.02,Snow,Light Snow,230,2013-02-27 22:36:00
5:39 PM,33.8,30.2,87,29.60,2.0,SW,12.7,-,0.02,Snow,Light Snow,230,2013-02-27 22:39:00
5:53 PM,33.1,30.9,92,29.62,2.5,SW,10.4,-,0.02,Snow,Light Snow,220,2013-02-27 22:53:00
6:03 PM,33.8,30.2,87,29.61,1.8,SW,11.5,-,0.00,Snow,Light Snow,230,2013-02-27 23:03:00
6:10 PM,33.8,30.2,87,29.61,1.2,SW,12.7,-,0.00,Snow,Light Snow,230,2013-02-27 23:10:00
6:41 PM,33.8,30.2,87,29.61,1.5,SW,8.1,-,0.01,Snow,Light Snow,220,2013-02-27 23:41:00
6:53 PM,33.1,30.9,92,29.62,1.2,SW,9.2,-,0.01,Snow,Light Snow,220,2013-02-27 23:53:00
7:21 PM,33.8,30.2,87,29.62,2.5,SW,10.4,-,0.00,Snow,Light Snow,220,2013-02-28 00:21:00
7:27 PM,33.8,30.2,87,29.62,1.8,SW,10.4,-,0.01,Snow,Light Snow,220,2013-02-28 00:27:00
7:43 PM,33.8,30.2,87,29.62,1.5,SW,15.0,-,0.01,Snow,Light Snow,220,2013-02-28 00:43:00
7:53 PM,33.1,30.9,92,29.62,1.8,SW,11.5,-,0.01,Snow,Light Snow,230,2013-02-28 00:53:00
8:05 PM,33.8,30.2,87,29.61,2.0,SW,12.7,-,0.00,Snow,Light Snow,230,2013-02-28 01:05:00
8:12 PM,33.8,30.2,87,29.61,2.0,SW,11.5,-,0.00,Snow,Light Snow,230,2013-02-28 01:12:00
8:23 PM,33.8,30.2,87,29.62,1.8,SW,9.2,-,0.00,Snow,Light Snow,220,2013-02-28 01:23:00
8:42 PM,33.8,30.2,87,29.61,2.0,SW,11.5,-,0.00,Snow,Light Snow,230,2013-02-28 01:42:00
8:53 PM,33.1,30.9,92,29.62,2.0,SW,11.5,-,0.00,Snow,Light Snow,230,2013-02-28 01:53:00
8:58 PM,33.8,30.2,87,29.61,3.0,SW,12.7,-,0.00,Snow,Light Snow,230,2013-02-28 01:58:00
9:10 PM,32.0,30.2,93,29.61,3.0,SW,12.7,-,0.00,Snow,Light Snow,220,2013-02-28 02:10:00
9:24 PM,32.0,30.2,93,29.61,3.0,SW,12.7,-,0.00,Snow,Light Snow,230,2013-02-28 02:24:00
9:31 PM,32.0,30.2,93,29.61,2.5,SW,12.7,-,0.00,Snow,Light Snow,230,2013-02-28 02:31:00
9:50 PM,32.0,30.2,93,29.61,3.0,SW,10.4,-,0.00,Snow,Light Snow,230,2013-02-28 02:50:00
9:53 PM,32.0,30.0,92,29.62,3.0,SW,12.7,-,0.00,Snow,Light Snow,230,2013-02-28 02:53:00
10:00 PM,32.0,30.2,93,29.61,5.0,SW,13.8,-,0.00,Snow,Light Snow,230,2013-02-28 03:00:00
10:53 PM,32.0,30.0,92,29.62,2.5,SW,13.8,-,0.00,Snow,Light Snow,230,2013-02-28 03:53:00
11:01 PM,32.0,30.2,93,29.60,4.0,SW,11.5,-,0.00,Snow,Light Snow,230,2013-02-28 04:01:00
11:17 PM,32.0,30.2,93,29.60,2.0,WSW,11.5,-,0.00,Snow,Light Snow,240,2013-02-28 04:17:00
11:26 PM,32.0,30.2,93,29.60,1.8,WSW,8.1,-,0.00,Snow,Light Snow,240,2013-02-28 04:26:00
11:39 PM,32.0,28.4,87,29.60,2.5,WSW,12.7,18.4,0.00,Snow,Light Snow,240,2013-02-28 04:39:00
11:48 PM,30.2,28.4,93,29.59,4.0,WSW,13.8,-,0.00,Snow,Light Snow,240,2013-02-28 04:48:00
11:53 PM,30.9,28.9,92,29.61,5.0,WSW,15.0,-,0.00,,Overcast,240,2013-02-28 04:53:00